Chadron, NE

2:27 AM MST on February 25, 2017 (GMT -0700)
Chadron Municipal

Weather History for KCDR - January, 2014

Change the Weather History Date:

Friday, January 31, 2014

  Actual Average Record
Temperature  
Mean Temperature 21 °F 25 °F  
Max Temperature 32 °F 39 °F 69 °F (1989)
Min Temperature 10 °F 11 °F -25 °F (1917)
Degree Days  
Heating Degree Days 44 40  
Month to date heating degree days 1129 1257  
Since 1 July heating degree days 4192 4199  
Cooling Degree Days 0 0  
Month to date cooling degree days 0 0  
Year to date cooling degree days 0 0  
Moisture  
Dew Point 15 °F    
Average Humidity 75    
Maximum Humidity 92    
Minimum Humidity 58    
Precipitation  
Precipitation 0.01 in 0.02 in 0.37 in (1981)
Month to date precipitation 0.17 0.36  
Year to date precipitation 0.17 0.36  
Sea Level Pressure  
Sea Level Pressure 29.94 in    
Wind  
Wind Speed 6 mph (SSW)    
Max Wind Speed 17 mph    
Max Gust Speed 21 mph    
Visibility 10 miles    
Events Snow    
T = Trace of Precipitation, MM = Missing Value Source: NWS Daily Summary

Daily Weather History Graph

Daily Weather History Graph

Search for Another Location

Airport or City:

Trip Planner

Search our weather history database for the weather conditions in past years. The results will help you decide how hot, cold, wet, or windy it might be!

Date:

Astronomy

Jan. 31, 2014 Rise Set
Actual Time 7:08 AM MST 5:04 PM MST
Civil Twilight 6:37 AM MST 5:34 PM MST
Nautical Twilight 6:04 AM MST 6:08 PM MST
Astronomical Twilight 5:30 AM MST 6:41 PM MST
Moon 7:16 AM MST (1/31) 6:34 PM MST (1/31)
Length of Visible Light 10h 56m
Length of Day
9h 56m
New Moon, 1% of the Moon is Illuminated
Jan 31
New Moon
Feb 6
First Quarter
Feb 14
Full
Feb 22
Last Quarter
Mar 1
New

Hourly Weather History & Observations

Time (MST) Temp. Windchill Dew Point Humidity Pressure Visibility Wind Dir Wind Speed Gust Speed Precip Events Conditions
12:22 AM 15.8 °F 8.6 °F 10.4 °F 79% 29.91 in 10.0 mi ENE 4.6 mph - N/A   Overcast
12:53 AM 17.1 °F 11.7 °F 10.9 °F 77% 30.08 in 4.0 mi ENE 3.5 mph - 0.00 in Snow Light Snow
1:18 AM 15.8 °F 10.2 °F 12.2 °F 86% 29.90 in 10.0 mi NE 3.5 mph - 0.00 in   Overcast
1:42 AM 15.8 °F 8.6 °F 10.4 °F 79% 29.91 in 10.0 mi ENE 4.6 mph - 0.00 in   Overcast
1:53 AM 15.1 °F 9.4 °F 10.9 °F 84% 30.08 in 10.0 mi ENE 3.5 mph - 0.00 in   Overcast
2:25 AM 15.8 °F 10.2 °F 10.4 °F 79% 29.91 in 10.0 mi East 3.5 mph - N/A   Overcast
2:53 AM 16.0 °F 8.8 °F 10.9 °F 81% 30.07 in 10.0 mi ESE 4.6 mph - N/A   Overcast
3:42 AM 15.8 °F 10.2 °F 12.2 °F 86% 29.90 in 10.0 mi SSW 3.5 mph - N/A   Overcast
3:53 AM 16.0 °F - 12.0 °F 84% 30.06 in 10.0 mi Calm Calm - N/A   Overcast
4:53 AM 15.1 °F 9.4 °F 10.9 °F 84% 30.06 in 10.0 mi SSW 3.5 mph - N/A   Mostly Cloudy
5:53 AM 12.9 °F - 10.0 °F 88% 30.06 in 10.0 mi Calm Calm - N/A   Clear
6:53 AM 10.0 °F - 7.0 °F 87% 30.06 in 10.0 mi Calm Calm - N/A   Clear
7:53 AM 14.0 °F 3.9 °F 10.0 °F 84% 30.05 in 10.0 mi South 6.9 mph - N/A   Clear
8:53 AM 19.0 °F 12.3 °F 14.0 °F 81% 30.02 in 10.0 mi SW 4.6 mph - N/A   Clear
9:53 AM 25.0 °F 12.2 °F 16.0 °F 69% 29.99 in 10.0 mi SSW 16.1 mph - N/A   Clear
10:53 AM 28.0 °F 17.0 °F 17.1 °F 63% 29.97 in 10.0 mi SSW 13.8 mph - N/A   Clear
11:53 AM 30.0 °F 21.1 °F 18.0 °F 61% 29.92 in 10.0 mi SSW 10.4 mph - 0.01 in   Clear
12:53 PM 32.0 °F 23.0 °F 19.0 °F 59% 29.86 in 10.0 mi WSW 11.5 mph - N/A   Clear
1:53 PM 30.9 °F 24.3 °F 19.0 °F 61% 29.84 in 10.0 mi South 6.9 mph - N/A   Partly Cloudy
2:53 PM 32.0 °F 24.2 °F 19.9 °F 61% 29.85 in 10.0 mi West 9.2 mph - N/A   Mostly Cloudy
3:34 PM 30.2 °F 21.9 °F 19.4 °F 64% 29.71 in 10.0 mi SSW 9.2 mph - N/A   Mostly Cloudy
3:45 PM 30.2 °F 21.3 °F 19.4 °F 64% 29.71 in 10.0 mi South 10.4 mph - N/A   Scattered Clouds
3:53 PM 30.0 °F 20.5 °F 19.9 °F 66% 29.85 in 10.0 mi SSW 11.5 mph - N/A   Partly Cloudy
4:53 PM 28.0 °F 20.0 °F 19.9 °F 72% 29.86 in 10.0 mi SSW 8.1 mph - N/A   Clear
5:53 PM 27.0 °F 19.5 °F 21.0 °F 78% 29.88 in 10.0 mi SSW 6.9 mph - N/A   Clear
6:53 PM 25.0 °F 18.1 °F 19.9 °F 81% 29.91 in 10.0 mi WSW 5.8 mph - N/A   Clear
7:53 PM 25.0 °F 19.3 °F 21.0 °F 85% 29.91 in 10.0 mi WNW 4.6 mph - N/A   Clear
8:53 PM 24.1 °F - 19.9 °F 84% 29.91 in 10.0 mi Calm Calm - N/A   Clear
9:53 PM 21.0 °F 14.6 °F 18.0 °F 88% 29.92 in 10.0 mi WNW 4.6 mph - N/A   Clear
10:53 PM 21.0 °F 14.6 °F 17.1 °F 85% 29.95 in 10.0 mi WNW 4.6 mph - N/A   Clear
11:53 PM 18.0 °F - 15.1 °F 88% 29.97 in 10.0 mi Calm Calm - N/A   Clear